Dewpoint
73 72 73 73 75 75 77 76 74 74 74 74 74 75 74 74 77 75 77 77 73 69 72 68 73 70 67 69 68 70 69 72 70 68 69 72 74 75 75 75 75 74 74 73 73 73 74 73 73 73 73 73 73 73 73 72 72 72 73 72 72 72 72 72 72 72 72 72 72 72 73 73 73 73 73 73 73 72 72 72 72 72 71 71 71
72 73 74 72 74 72 73 73 72 74 73 73 78 77 75 76 76 77 72 75 73 73 73 68 66 72 70 67 66 63 71 71 70 69 70 71 72 74 75 75 74 74 74 73 73 73 72 72 73 73 73 72 73 73 73 72 72 72 72 72 72 72 71 72 72 72 72 72 73 73 74 73 73 73 73 73 73 73 72 72 72 72 72 72 71
74 74 73 73 73 73 72 72 74 74 76 75 75 75 76 76 76 78 75 77 76 74 74 74 71 67 67 65 66 68 67 70 66 66 67 69 70 73 74 75 74 75 74 74 74 74 74 73 74 73 72 72 72 72 72 72 72 72 72 72 72 71 71 72 72 72 73 73 73 73 73 73 73 73 73 73 73 73 73 72 72 72 72 72 72
77 75 74 76 75 76 75 75 74 76 77 73 76 75 77 76 76 78 76 77 73 75 75 70 70 68 72 66 68 68 69 68 62 62 66 70 71 71 73 73 75 74 74 74 74 74 73 74 73 73 73 73 73 73 72 72 72 72 72 72 72 72 72 72 72 72 73 73 74 74 73 73 73 73 72 73 73 73 73 73 72 72 72 73 72
76 76 75 74 76 74 74 75 77 78 75 73 74 76 76 76 77 75 77 75 74 75 70 69 69 71 68 64 69 70 72 68 71 63 63 68 72 71 71 72 73 74 75 74 74 74 74 74 74 74 74 74 74 73 73 73 73 73 73 73 73 73 73 73 72 73 73 74 74 74 73 73 73 73 73 73 73 73 73 72 72 72 72 72 72
77 76 76 75 74 76 75 75 77 76 77 77 76 76 76 75 73 75 74 75 72 73 75 72 70 74 68 72 73 74 70 67 66 65 66 64 69 71 73 73 73 73 74 75 75 75 75 75 75 75 74 74 74 74 74 74 74 73 73 74 73 73 73 73 73 73 74 74 74 74 74 74 73 73 73 73 73 73 73 73 73 73 73 72 72
77 79 76 78 74 73 75 76 77 77 77 78 78 76 76 76 76 74 77 74 71 75 69 69 69 69 71 73 70 74 70 67 71 66 67 73 72 69 71 73 74 74 74 73 75 76 75 75 75 75 75 75 75 75 75 75 75 75 74 74 74 74 74 74 74 74 74 74 75 75 75 75 74 73 73 73 73 73 73 73 72 72 72 73 73
79 78 76 75 74 75 76 77 77 79 76 79 79 76 77 78 76 73 76 71 74 70 73 72 70 67 69 71 71 74 72 71 70 63 65 71 69 71 75 74 73 74 76 74 74 74 76 76 75 75 75 75 75 75 75 75 75 75 75 75 75 75 74 75 75 75 75 75 75 75 76 75 76 75 75 75 74 74 74 73 73 73 73 73 73
79 78 78 76 74 74 74 75 77 77 77 80 76 77 76 68 77 77 77 77 71 63 69 73 69 67 69 65 66 73 69 76 68 64 64 72 72 66 68 72 75 69 75 74 74 75 76 77 76 76 76 76 76 76 76 76 75 75 75 75 76 76 76 76 76 75 76 76 76 76 76 76 76 76 76 75 75 75 75 75 75 74 74 74 74
78 79 78 75 76 76 75 77 77 77 79 77 76 75 75 75 78 78 76 75 72 69 69 71 62 62 69 62 71 71 70 75 72 74 73 70 74 72 68 67 69 67 68 70 73 75 73 76 78 77 77 77 77 77 77 77 77 76 76 76 76 76 76 76 76 76 76 76 76 76 76 76 76 76 76 76 76 76 76 76 75 75 75 75 75
78 79 78 78 75 76 77 77 77 79 78 76 76 76 75 74 73 78 78 77 75 74 72 70 64 61 60 62 64 72 75 67 71 71 71 64 65 66 61 73 68 70 75 72 70 73 73 73 74 76 75 77 78 78 77 77 77 77 77 76 77 77 76 77 77 77 77 77 77 77 77 77 77 77 77 77 76 77 76 76 76 76 76 76 75
78 78 77 78 77 76 76 76 77 77 78 76 75 76 75 74 74 71 76 76 74 72 73 74 68 68 70 71 72 70 70 73 71 68 71 67 66 72 69 69 73 68 68 67 72 68 73 74 76 75 74 76 77 78 79 78 78 78 77 77 77 77 77 77 78 77 77 77 77 77 77 77 77 77 77 77 77 77 77 77 77 76 76 76 76
78 78 77 78 78 77 78 76 77 78 77 77 75 74 77 77 79 79 74 76 72 70 70 69 75 75 75 67 69 71 69 71 69 68 67 67 65 67 73 66 68 74 75 71 72 73 70 72 74 76 76 75 76 77 78 78 77 78 78 78 78 77 78 78 78 78 78 78 78 78 78 78 78 78 78 78 78 77 77 77 77 77 77 77 76
77 77 79 78 78 77 77 78 78 79 78 78 76 75 76 77 75 76 76 74 74 66 65 73 71 70 72 70 71 72 75 69 63 61 63 65 63 66 67 64 61 64 67 70 74 72 67 70 78 75 78 78 77 75 76 77 78 78 79 79 78 78 78 78 78 78 78 78 78 78 78 78 78 78 78 78 78 78 78 77 77 77 77 77 77
77 77 77 77 78 79 77 77 78 78 78 77 77 76 77 75 76 76 75 73 74 69 72 71 70 69 72 74 70 69 73 72 65 61 58 59 62 59 62 61 62 62 73 70 69 70 68 68 73 79 80 77 75 78 77 77 77 78 77 77 78 79 78 78 78 78 78 78 78 78 78 78 78 78 78 78 78 78 77 77 77 77 77 77 77
74 74 76 76 77 77 77 76 79 78 79 78 78 76 77 77 73 74 74 71 67 70 70 72 72 71 73 70 68 68 67 72 71 68 61 58 58 56 60 63 62 64 72 69 66 72 74 72 71 75 77 75 78 76 76 76 78 80 81 79 77 77 78 78 77 77 77 77 77 77 77 78 78 78 77 77 77 78 78 78 77 77 77 77 77
74 75 76 78 78 78 77 77 77 77 77 77 78 74 74 75 75 78 73 73 69 70 71 67 68 75 75 74 68 67 66 66 60 74 62 62 57 56 60 62 57 70 71 68 65 67 66 68 73 74 77 78 74 73 76 77 81 80 81 80 79 77 77 78 77 76 76 75 76 76 77 77 77 77 77 77 78 78 77 77 77 77 77 77 77
76 76 76 76 77 78 77 76 76 78 79 78 76 75 76 74 74 72 72 75 76 74 67 75 68 75 75 74 71 70 71 69 66 71 74 65 63 55 65 61 59 64 66 65 61 65 69 67 70 76 74 73 77 77 76 75 83 81 80 80 81 80 79 78 76 75 75 75 75 76 76 77 77 77 78 77 77 78 78 77 77 77 77 77 77
73 76 76 77 77 78 77 77 77 76 76 77 76 70 70 72 73 76 75 77 78 76 72 67 71 73 65 64 66 70 67 73 72 75 69 71 66 62 56 63 59 59 61 61 63 62 67 67 68 67 74 75 78 76 80 74 76 77 78 78 77 76 77 76 76 75 75 76 76 77 77 77 77 77 77 77 77 77 77 77 77 77 77 77 77
75 77 77 77 78 77 79 78 77 77 78 78 76 72 76 77 77 76 79 81 80 76 76 71 75 75 69 70 68 67 66 65 71 69 71 72 73 65 55 59 65 59 65 63 59 61 68 74 70 70 75 76 82 76 78 76 77 76 76 74 76 76 76 76 75 75 76 77 77 77 77 77 77 77 77 77 77 76 76 77 76 76 76 76 75
76 76 77 76 78 78 78 79 78 76 75 74 74 72 74 75 78 77 77 77 76 78 79 79 71 71 74 75 72 72 67 69 68 68 72 68 69 66 64 60 65 61 63 61 67 63 65 69 70 71 74 77 80 78 76 77 79 79 76 76 77 77 77 76 75 76 76 76 76 77 77 77 77 77 76 76 76 76 76 76 76 75 74 74 73
76 76 77 77 77 78 76 76 76 75 74 77 74 75 76 77 76 74 76 76 81 78 74 79 74 73 74 75 76 76 72 71 65 67 65 70 67 65 62 63 70 71 73 69 63 68 64 70 72 71 73 76 74 76 78 79 81 75 74 76 77 76 76 76 76 77 75 75 76 76 77 77 77 76 76 76 76 76 76 75 74 73 73 72 72
73 77 76 75 75 77 74 74 75 75 77 77 75 72 72 73 72 77 77 78 77 77 77 77 76 77 72 77 75 70 76 74 71 69 68 69 72 64 61 59 61 59 73 69 71 66 67 65 66 66 76 75 76 76 77 81 75 73 74 75 76 76 77 77 76 76 75 75 75 76 76 77 76 76 76 76 76 75 74 73 73 72 71 70 69
75 74 73 71 76 76 76 76 77 76 76 76 76 75 73 74 77 79 77 78 78 80 75 77 73 77 70 67 70 67 68 67 66 71 77 74 71 67 69 71 66 69 65 67 62 68 64 65 69 69 70 76 76 82 78 81 78 73 75 76 75 76 75 77 76 76 75 74 74 75 76 76 76 76 75 74 74 73 73 72 72 71 70 68 68
76 73 72 72 76 77 76 76 77 77 78 78 77 79 78 75 78 73 76 76 77 77 78 74 73 73 70 69 68 66 67 69 68 69 69 77 74 70 69 64 70 69 71 63 69 66 68 71 68 69 73 77 78 81 78 76 76 78 75 76 75 76 76 76 76 75 74 74 74 74 75 75 75 75 74 73 72 71 71 71 70 69 68 68 67
73 75 72 72 74 75 76 76 78 77 78 77 78 78 78 78 76 78 73 78 79 78 78 75 76 73 73 71 67 68 68 67 66 67 66 66 70 72 71 71 66 66 76 73 74 68 67 72 69 74 75 77 76 81 78 73 74 72 75 76 75 75 75 76 76 75 74 74 74 74 75 75 75 73 72 73 71 70 70 70 69 68 68 67 67
74 76 76 76 75 76 76 76 77 78 78 77 77 78 78 78 79 77 81 75 77 77 76 73 69 69 71 75 74 70 71 73 66 67 69 69 70 70 71 69 68 68 70 72 71 66 68 68 65 71 76 81 81 81 80 75 71 70 73 76 76 74 74 75 75 74 73 73 74 74 74 75 74 73 73 70 70 69 70 69 68 67 67 67 66
74 75 73 74 75 75 76 74 77 76 77 78 77 77 78 78 79 78 77 73 77 75 77 74 72 73 71 78 76 69 71 67 73 69 72 71 73 75 81 78 71 70 70 72 70 73 62 69 73 75 75 77 77 76 78 71 70 72 73 77 77 75 73 74 74 74 72 72 73 73 74 74 73 73 71 70 69 69 69 68 67 66 66 66 65
72 72 73 76 76 75 75 72 76 77 77 78 77 78 79 78 76 78 76 73 76 77 76 77 77 70 70 71 76 78 75 75 72 73 75 75 75 77 75 77 75 75 71 70 72 71 70 63 70 80 79 76 79 77 78 78 73 75 76 75 78 77 73 72 73 73 73 72 72 73 73 72 72 71 70 69 69 68 68 67 66 66 65 65 64
69 68 73 73 75 75 76 76 74 74 75 74 76 77 79 79 77 79 78 77 78 78 78 76 76 75 73 74 72 74 75 72 71 67 76 78 77 74 77 75 78 77 75 72 72 73 72 67 64 76 77 77 77 78 77 77 73 75 77 77 77 77 73 72 72 72 72 72 71 71 71 71 70 70 68 68 67 67 67 66 66 65 65 64 63
74 77 74 72 74 74 77 74 76 75 75 75 76 77 77 77 76 76 77 78 78 79 80 77 74 77 77 74 78 79 76 75 75 71 75 76 75 76 76 82 77 81 79 78 71 78 71 71 71 67 69 74 71 73 73 77 75 74 76 77 77 77 72 74 73 72 72 71 70 70 70 70 68 68 69 67 67 66 65 65 65 64 64 63 62
69 72 73 71 72 71 70 70 70 71 72 72 73 76 76 76 74 72 74 77 76 77 75 74 70 74 76 76 77 78 79 79 78 75 78 75 77 77 77 75 75 75 78 78 74 73 76 71 71 70 66 74 75 76 78 78 77 74 77 76 80 75 75 76 73 72 71 70 70 69 68 67 67 68 68 67 66 65 65 65 64 63 63 62 61
69 68 71 73 73 72 71 72 70 72 75 74 73 76 76 77 77 77 76 76 77 76 77 76 72 75 78 78 77 76 78 77 78 75 73 75 73 73 74 80 76 76 76 75 74 74 75 77 76 72 70 72 71 76 74 76 76 78 75 76 77 75 76 76 74 71 70 69 68 68 67 66 66 67 67 67 66 65 64 63 63 62 62 61 60
70 66 70 68 71 72 70 72 72 72 75 76 70 73 75 76 75 71 72 77 77 76 77 76 75 73 76 77 76 75 77 75 75 70 70 67 68 67 71 71 73 74 75 74 75 74 73 75 75 77 72 71 70 79 78 75 74 77 75 76 73 73 78 77 76 73 70 69 68 67 66 66 65 66 67 67 65 65 63 63 62 61 61 60 60
69 69 69 68 72 74 72 73 75 73 75 73 73 73 74 75 74 72 70 73 74 74 74 75 74 75 74 76 74 74 70 72 73 71 69 70 69 71 71 75 76 75 78 76 75 74 73 74 76 72 73 75 73 73 75 74 76 76 75 74 73 71 71 75 77 74 69 68 67 66 66 65 65 65 66 65 65 64 63 62 61 60 60 59 59
65 69 70 70 72 74 73 74 75 74 75 73 72 72 74 74 74 74 75 76 73 73 73 73 72 73 73 75 72 72 73 74 76 76 77 74 74 76 75 76 77 74 75 75 78 76 76 74 76 74 74 75 75 75 74 74 73 75 75 74 74 73 76 74 75 74 70 68 67 66 66 65 64 64 64 64 64 63 63 62 61 60 59 59 58
64 66 70 72 74 74 70 72 74 74 73 74 74 71 71 71 73 72 73 74 74 74 73 74 74 75 74 73 73 73 75 75 76 75 73 73 72 71 72 74 74 74 74 76 76 75 74 74 74 76 77 76 76 75 74 73 76 77 78 77 76 74 77 74 73 74 70 68 67 66 65 65 64 64 63 63 62 62 61 60 60 59 59 58 57
66 64 68 68 70 74 73 72 72 74 74 74 75 73 70 69 71 71 72 73 72 73 73 73 73 73 72 74 73 74 74 73 71 72 74 74 75 72 72 74 76 78 79 77 77 77 76 75 75 74 75 73 73 76 77 77 73 73 76 77 76 75 76 78 75 70 69 67 66 65 65 64 64 63 63 62 62 61 61 61 61 59 58 57 56
64 62 64 68 69 71 73 72 71 73 73 73 75 75 73 72 72 71 70 71 71 71 71 71 69 70 71 70 72 73 72 73 71 72 74 74 72 73 76 78 77 76 74 74 75 77 76 75 75 75 75 75 74 73 78 79 78 78 75 75 75 76 77 78 79 74 70 68 68 67 65 65 64 62 60 61 61 61 61 61 60 59 58 57 56
63 62 60 65 68 68 70 70 72 73 74 73 74 75 74 72 71 71 71 70 68 69 69 70 69 67 68 68 65 68 70 72 72 72 74 74 75 73 74 74 74 75 74 75 75 75 74 73 74 74 75 76 75 73 71 70 70 71 73 72 73 76 78 82 77 75 75 78 73 68 66 66 65 63 61 61 62 62 61 61 61 60 59 57 58
62 62 62 60 64 66 67 69 70 70 69 70 70 72 73 74 73 70 70 69 69 69 69 67 68 68 66 65 64 63 69 75 73 73 72 73 71 74 75 75 76 77 76 75 75 75 74 73 72 72 72 72 73 73 71 72 71 71 75 75 73 76 76 75 77 79 77 72 72 70 67 67 67 64 61 61 61 62 61 61 62 62 60 58 58
69 69 68 66 62 64 66 68 69 67 67 67 71 69 70 72 72 70 69 70 70 70 71 70 67 67 64 62 61 71 75 77 75 73 71 72 75 72 75 77 77 76 76 76 76 75 75 74 73 73 72 71 71 71 72 72 73 75 73 75 72 74 75 75 77 77 79 74 71 74 76 72 69 67 65 63 62 64 60 60 59 57 60 59 59
72 74 70 66 62 60 62 64 66 65 66 66 67 64 65 68 72 73 72 72 72 72 71 72 71 67 65 65 64 68 73 76 77 73 72 71 70 71 72 74 76 75 75 75 75 75 75 74 74 73 71 71 70 70 70 68 67 66 68 72 76 78 75 72 71 75 77 75 78 76 75 77 76 74 69 66 65 63 61 60 62 61 59 60 60
72 71 70 70 70 67 62 61 62 64 65 66 62 62 63 64 69 72 71 70 69 70 70 69 70 69 67 64 62 59 63 67 69 75 73 70 69 69 68 69 70 71 71 73 74 75 75 73 73 72 71 71 71 72 70 68 71 72 75 74 74 72 72 72 72 70 79 78 73 73 74 76 77 75 75 73 67 64 63 62 60 59 60 60 59
72 74 73 71 71 71 68 69 65 61 63 63 60 60 62 63 63 69 70 70 69 67 67 69 69 70 70 68 65 62 57 72 72 69 72 71 68 66 68 69 70 68 65 65 68 71 72 74 72 72 72 72 72 72 71 71 76 75 75 74 72 72 72 71 71 71 73 78 76 73 71 71 73 73 71 73 69 66 61 59 59 60 60 60 59
74 74 73 74 73 73 72 72 72 69 67 64 59 58 60 61 62 65 71 71 70 68 68 67 67 68 70 70 69 67 67 67 69 73 74 74 72 71 71 71 71 71 70 66 65 66 68 68 68 68 69 72 72 73 74 76 75 73 74 73 74 72 71 71 73 74 76 75 73 73 71 71 71 71 72 72 63 61 60 58 59 59 59 59 58
75 74 74 74 74 74 72 70 70 69 66 63 59 56 57 59 61 63 70 71 69 68 68 69 71 69 71 69 69 68 70 71 71 70 69 74 76 75 73 71 71 71 71 71 70 69 68 68 67 67 68 69 72 73 74 75 74 75 75 75 75 75 75 75 75 75 74 74 72 72 70 71 73 73 72 69 64 63 60 58 59 60 59 58 58
75 75 75 74 73 72 72 71 70 71 69 63 61 56 56 57 60 67 69 71 70 69 68 68 68 70 70 70 72 72 72 72 73 70 71 72 70 72 74 75 75 74 73 74 69 69 70 69 68 67 65 65 65 69 71 71 73 75 75 74 75 74 73 72 72 72 71 73 73 73 71 71 72 70 71 69 66 62 60 56 59 60 59 58 59
73 74 74 73 73 73 71 71 70 71 71 67 61 57 55 56 59 67 70 71 71 71 70 70 70 70 69 70 70 67 68 71 71 66 65 70 70 69 69 69 68 67 69 72 68 66 66 64 64 64 64 63 62 62 63 66 71 72 74 73 73 72 72 72 73 72 71 69 67 68 68 71 74 72 72 71 68 64 61 58 57 59 58 58 58
73 72 73 73 73 73 71 71 70 70 70 69 63 59 55 55 61 67 70 71 71 72 72 72 72 72 72 73 74 70 69 69 64 63 63 68 72 71 70 68 67 67 68 68 66 68 64 63 63 63 63 63 63 63 64 64 64 69 71 70 69 69 68 67 66 66 67 66 66 66 65 65 68 72 72 74 72 67 64 61 58 57 58 57 57
72 73 73 72 72 72 71 71 72 71 70 69 63 59 54 54 60 69 71 71 70 70 70 71 72 72 72 73 74 72 71 69 63 62 62 68 72 72 71 70 68 67 67 67 68 68 70 71 71 70 69 67 68 68 68 66 66 71 71 71 71 70 69 68 67 68 67 67 67 71 66 69 68 68 67 68 69 71 68 62 59 57 56 57 57